Theta_e
301 302 304 304 309 313 312 306 302 304 306 305 299 306 307 305 305 304 306 305 305 306 304 303 307 310 309 306 303 302 302 300 300 300 300 301 302 302 300 302 302 301 299 303
301 301 303 305 305 307 309 299 299 305 305 303 302 304 304 304 305 304 306 305 304 303 304 303 305 308 307 303 302 302 299 297 298 301 303 304 304 304 302 300 299 300 302 302
301 302 302 306 306 309 308 301 304 300 295 296 301 302 303 303 303 303 303 304 304 303 303 302 303 308 307 304 303 306 301 296 297 302 302 302 302 302 302 301 297 301 303 303
301 303 303 303 306 308 306 297 301 301 300 299 300 302 304 302 303 302 302 303 303 302 301 303 303 304 306 304 305 303 300 300 301 301 300 301 302 303 303 303 301 302 301 300
300 302 306 305 304 306 305 302 299 295 297 298 302 300 304 304 302 301 302 303 302 302 302 300 301 302 301 302 304 303 299 300 302 302 302 302 303 303 302 303 303 302 302 303
299 299 302 304 306 305 304 303 302 298 299 298 300 302 303 303 301 301 302 302 302 302 301 302 301 299 298 300 302 300 300 301 300 298 300 300 300 301 301 302 302 302 302 302
299 298 299 302 302 304 306 305 302 301 301 300 302 303 303 301 302 303 302 300 301 301 300 299 299 299 299 298 299 298 299 300 299 298 299 299 301 300 301 301 301 301 301 301
300 299 298 299 302 301 303 305 303 299 301 299 302 302 302 300 300 302 301 301 299 299 299 299 301 302 302 301 299 298 298 299 297 296 297 300 301 301 300 301 301 301 301 300
305 301 299 298 300 304 303 302 305 301 300 302 302 301 300 299 298 300 301 299 298 298 299 301 297 302 303 302 301 298 298 298 298 299 295 297 300 301 300 299 300 299 299 299
309 305 302 300 299 302 304 302 301 303 300 301 299 300 300 298 298 299 300 300 300 298 299 302 301 303 302 302 302 301 299 299 300 300 295 299 299 299 299 300 299 298 298 299
311 309 305 302 299 299 301 303 303 301 298 299 303 301 300 298 298 300 298 299 298 297 300 299 300 299 301 300 299 300 301 299 298 299 297 301 299 299 300 298 296 299 299 298
311 310 309 305 301 299 300 302 304 304 301 299 303 304 303 301 300 297 296 297 298 298 298 297 295 300 295 300 302 298 301 301 298 300 300 299 298 298 298 297 299 299 298 297
310 310 310 309 305 301 299 302 303 303 298 300 300 302 304 304 304 302 299 296 298 297 297 297 297 298 297 300 299 299 299 298 298 301 299 298 297 297 297 298 299 298 296 294
308 309 310 309 307 305 302 301 301 302 299 301 303 303 303 303 304 302 301 300 299 297 297 300 299 301 299 297 299 298 300 298 299 298 298 298 296 295 296 299 298 295 293 293
306 308 308 308 308 305 303 303 302 301 300 300 300 300 302 302 301 301 301 301 297 297 298 296 297 298 300 298 295 295 298 298 300 301 298 297 296 297 298 298 295 293 293 293
300 303 307 308 307 306 304 300 304 302 304 299 298 297 299 300 300 300 299 299 296 297 298 297 296 297 299 292 293 296 298 300 300 299 295 295 296 295 296 293 293 293 292 292
301 301 302 304 308 307 304 303 303 304 303 300 298 296 297 299 299 298 297 298 296 297 297 296 297 297 297 288 293 300 298 298 297 296 296 297 297 297 292 293 293 293 292 292
300 301 301 304 308 306 304 305 302 304 303 301 298 297 296 298 297 298 296 296 296 297 297 296 297 297 295 293 298 299 298 297 295 295 294 295 295 292 292 293 292 292 291 291
300 301 300 304 306 304 303 304 302 303 301 300 300 301 295 295 295 295 295 294 296 294 298 299 297 296 298 300 300 300 298 297 297 296 294 292 292 291 291 291 291 291 291 291
301 300 303 301 303 303 303 301 302 302 302 301 301 296 300 295 291 291 295 292 293 301 298 298 301 300 299 298 299 299 298 296 295 296 295 292 292 291 291 290 291 291 290 291
301 300 301 301 302 302 302 303 302 301 302 301 302 300 302 294 300 300 296 301 300 300 297 299 299 299 296 298 298 298 297 295 295 296 294 293 291 291 290 290 291 291 291 291
301 300 301 302 301 300 301 302 302 302 303 300 302 300 301 299 298 302 301 303 300 300 293 300 299 297 296 298 296 295 294 294 294 294 291 291 291 291 291 290 291 291 291 291
300 299 299 299 298 299 301 301 301 301 300 296 299 300 299 299 298 302 302 303 301 294 299 300 298 296 298 296 295 295 293 293 292 291 292 292 292 292 292 291 292 291 291 290
300 298 299 297 295 299 297 296 295 295 294 296 297 298 300 299 301 302 305 301 298 297 299 297 296 296 296 296 295 295 294 291 291 291 291 291 291 291 292 292 292 291 291 290
298 297 298 294 294 293 293 293 294 294 294 297 298 299 300 300 301 301 302 299 297 296 297 296 298 297 295 295 295 294 292 290 290 290 290 290 291 291 291 292 292 291 291 290
296 296 297 294 293 295 292 292 294 293 295 294 295 297 299 299 300 301 297 296 296 296 296 297 297 297 297 297 295 293 291 290 290 291 291 291 291 291 291 292 291 291 291 290
296 297 296 295 294 295 292 293 294 295 296 297 300 300 300 299 297 300 298 296 296 297 298 297 298 300 302 300 293 292 291 291 291 291 291 292 292 292 291 290 292 291 291 290
Wind_Speed
33 29 17 9 4 1 1 4 3 4 3 4 2 3 1 1 2 5 3 3 2 2 1 3 2 3 1 1 1 2 1 4 4 6 4 3 2 2 3 4 3 1 3 8
33 33 24 11 5 2 3 3 1 2 3 3 1 1 3 2 2 3 2 2 2 1 3 1 2 3 1 2 2 5 4 1 2 3 4 3 2 2 4 5 3 6 4 6
31 32 31 15 9 4 3 3 2 4 4 1 6 4 2 2 2 2 3 2 2 2 2 2 4 3 3 2 2 5 3 3 5 6 3 2 4 4 4 5 3 3 11 16
28 29 31 27 10 5 3 4 1 2 1 4 4 3 3 3 1 2 2 2 0 3 4 3 4 3 3 1 4 2 3 5 4 5 7 4 7 12 9 10 7 8 13 8
26 27 27 29 18 6 8 4 4 3 2 1 2 3 3 5 2 3 1 2 3 2 3 5 6 5 4 5 2 5 0 2 3 5 4 2 8 12 11 16 15 16 22 26
22 25 26 27 27 10 6 3 3 4 3 2 3 2 3 4 5 0 0 3 4 2 3 3 2 2 2 3 8 6 5 4 2 5 5 7 9 9 13 5 5 9 10 15
20 21 23 24 27 23 8 5 2 4 1 1 2 3 2 3 3 3 1 3 4 2 3 3 3 1 4 4 6 4 6 5 3 3 4 2 5 3 3 8 6 10 11 8
21 19 19 21 22 20 21 9 3 3 1 1 0 4 4 4 2 1 5 2 1 5 4 3 3 3 2 4 6 7 4 4 0 1 2 8 8 1 7 6 7 11 10 3
19 19 18 17 17 16 11 20 8 4 4 4 3 4 4 4 3 1 1 2 4 5 3 3 4 5 4 3 3 4 5 4 4 2 3 6 4 3 3 4 8 5 5 4
17 17 18 17 15 16 11 11 14 3 2 3 3 3 5 5 3 2 1 3 2 3 2 2 3 4 3 3 6 5 4 2 8 5 4 9 12 8 3 3 6 5 3 6
13 15 16 16 14 13 11 6 13 5 1 4 4 4 4 2 3 5 4 3 1 2 3 3 3 3 3 1 2 5 7 7 4 3 3 10 8 4 8 6 3 3 3 6
11 11 13 14 13 12 9 3 10 9 2 4 5 9 9 5 7 5 4 2 4 5 3 1 2 2 0 3 3 1 4 6 5 10 8 4 6 3 3 4 4 3 4 6
10 10 10 11 11 11 9 6 11 5 4 4 3 4 7 14 13 9 4 2 3 3 3 4 2 3 4 3 6 3 5 5 4 1 7 16 11 5 3 5 5 4 4 3
9 10 10 9 9 9 9 8 8 3 2 1 5 3 5 4 11 15 9 6 6 7 2 2 3 3 4 3 4 5 6 6 5 7 14 9 8 6 5 4 2 1 3 3
9 9 10 10 9 7 9 13 10 4 1 2 5 13 9 11 7 12 9 14 5 2 2 2 3 2 2 2 2 5 8 7 6 9 9 6 4 4 5 5 3 1 3 5
8 10 9 11 11 6 7 4 4 6 1 1 4 3 4 2 5 10 11 9 3 3 4 3 3 3 3 2 4 6 8 15 17 9 5 6 4 5 5 5 4 3 4 8
8 8 9 10 12 10 3 2 1 6 3 1 5 4 4 2 3 3 3 4 2 3 2 3 2 2 5 2 4 3 10 10 9 4 5 5 5 5 8 6 3 4 7 9
8 7 7 7 10 12 10 18 9 9 3 2 3 4 4 0 1 0 2 2 1 1 3 0 3 1 2 4 17 4 6 6 7 10 10 7 4 7 6 4 2 3 5 5
7 7 6 2 7 4 4 12 12 15 6 3 3 1 3 4 2 1 3 2 0 2 3 3 4 3 7 16 11 11 11 9 8 6 7 7 7 7 6 5 5 4 4 3
3 3 2 1 3 6 9 5 2 3 5 3 4 4 4 3 1 1 1 1 3 3 4 3 4 6 17 9 13 16 9 13 8 6 5 5 4 7 6 6 4 4 3 6
2 2 1 4 9 1 1 3 4 3 3 3 3 9 7 4 3 3 4 2 2 3 4 5 4 6 5 13 17 14 9 11 14 13 7 9 7 7 6 5 6 4 3 4
4 6 4 4 2 1 4 4 3 4 6 3 4 4 4 3 3 3 3 3 4 6 3 3 5 6 9 7 9 7 7 8 10 13 9 11 11 11 9 7 5 3 4 7
7 2 2 2 3 6 7 8 4 4 4 4 3 2 3 2 2 3 3 5 5 3 3 4 8 2 8 7 5 6 5 7 7 7 16 16 13 12 10 7 5 3 6 8
3 4 6 6 6 7 6 5 3 4 4 6 6 3 3 2 4 3 4 3 1 3 4 8 2 7 6 6 5 3 4 7 8 9 14 14 14 13 11 9 6 4 7 8
4 5 7 10 5 4 3 4 3 3 4 6 3 1 2 2 4 3 2 3 6 7 7 3 4 3 4 5 4 5 5 6 7 11 12 14 16 14 12 11 8 5 7 9
4 7 5 3 2 5 3 4 3 3 4 3 3 3 3 5 3 5 7 4 8 5 3 3 4 6 9 7 8 5 8 10 10 15 16 17 16 15 14 10 9 7 8 9
6 7 6 4 1 4 4 4 4 11 5 3 3 4 8 3 4 5 5 5 3 2 4 4 3 7 11 12 8 6 11 13 16 17 19 18 16 13 11 8 10 8 6 8
Wind_Direction
33 34 43 69 79 145 167 102 61 353 163 51 35 120 97 35 352 20 62 102 95 105 66 64 85 204 324 148 125 101 18 132 253 237 285 253 254 175 129 134 228 174 148 270
32 33 33 40 54 56 158 104 194 4 153 127 66 226 72 75 52 37 47 101 60 99 130 114 128 137 41 136 120 163 169 233 340 322 352 2 138 146 125 105 92 209 143 261
28 30 32 34 33 52 125 88 57 341 48 61 123 133 129 96 17 70 61 112 78 87 115 63 165 150 219 199 142 122 95 178 203 201 191 130 254 213 178 133 140 206 230 278
25 28 29 31 39 58 107 33 180 186 8 2 85 91 137 124 187 36 49 41 197 160 165 174 186 142 139 261 206 92 133 227 223 254 245 229 241 246 214 218 200 208 265 245
22 23 27 29 31 49 76 112 123 25 103 316 90 7 183 159 175 151 205 188 173 153 184 198 202 149 184 196 153 158 182 257 35 299 348 308 272 262 226 237 240 250 260 273
23 21 24 29 34 43 84 73 101 104 311 49 84 217 156 195 137 141 259 199 126 225 236 159 165 127 126 181 166 181 163 140 89 267 346 318 286 249 205 205 196 215 232 250
20 22 22 27 34 38 64 56 62 83 216 129 184 180 127 159 192 178 174 119 137 172 112 90 80 100 240 210 221 159 144 126 126 261 350 325 251 303 198 200 233 234 265 276
17 19 21 23 30 37 53 38 44 96 141 175 146 135 125 114 61 138 167 186 136 128 60 49 3 328 299 230 218 196 160 131 248 155 217 294 282 246 189 186 262 229 244 292
11 14 17 17 24 29 33 34 31 73 111 253 123 152 173 173 187 332 135 58 128 73 87 90 179 226 230 238 144 49 95 89 138 129 172 241 246 165 80 111 288 180 146 258
1 6 14 15 16 22 37 33 23 39 86 257 136 182 180 139 124 135 152 170 144 50 117 158 185 246 203 221 189 168 133 186 212 208 245 281 248 220 52 87 248 177 218 234
350 357 1 10 12 15 18 32 25 27 133 271 207 200 153 133 148 158 178 72 337 73 165 160 222 181 232 290 221 181 173 161 197 145 173 264 161 76 176 208 201 213 225 259
331 341 350 360 6 11 13 19 3 350 207 256 251 243 240 226 196 141 193 194 161 175 111 212 105 214 75 182 260 164 244 202 188 188 215 250 218 227 174 161 180 235 230 251
308 325 329 340 358 358 11 355 355 337 15 299 339 259 255 236 229 216 140 266 180 178 176 154 161 218 133 195 233 218 247 176 218 218 251 241 235 251 249 187 199 225 236 283
282 293 310 316 325 336 338 339 324 329 88 254 279 328 254 248 226 218 218 154 129 113 119 148 159 178 169 228 263 211 212 148 205 262 277 264 260 228 221 198 198 286 330 311
278 272 274 292 300 307 311 304 289 253 48 264 287 312 269 244 221 211 201 163 125 132 119 138 217 177 149 203 6 243 189 188 204 240 235 205 212 183 173 197 201 272 293 292
300 278 274 269 281 295 336 352 39 207 205 36 317 304 312 325 211 197 175 157 108 115 147 209 241 289 164 188 241 239 198 216 226 240 179 195 206 222 173 173 180 240 266 279
305 311 284 270 250 230 204 215 70 151 170 36 307 301 319 336 85 55 72 55 95 129 182 221 205 242 175 202 237 190 214 223 231 233 150 257 180 214 175 162 192 275 282 278
309 303 306 290 249 234 227 251 250 188 180 148 264 280 344 233 29 106 17 110 28 259 211 131 193 279 197 255 242 236 217 219 234 236 209 221 141 141 159 162 189 259 281 289
308 308 313 275 204 207 214 247 230 206 222 220 179 235 277 1 26 27 16 50 28 315 240 226 151 218 224 231 249 235 214 201 221 239 207 176 176 178 177 186 214 239 278 304
314 322 93 259 238 175 171 145 195 209 199 230 222 142 241 121 89 292 140 147 218 228 232 139 226 252 246 246 255 253 234 211 192 187 193 178 194 192 192 202 207 235 275 322
147 114 107 73 140 118 230 233 203 182 234 212 215 197 224 186 163 199 208 201 199 239 238 190 250 264 245 223 242 250 238 195 205 213 200 186 169 175 184 196 219 244 292 318
162 144 120 147 190 229 233 219 205 209 225 194 180 205 196 176 167 185 200 215 183 248 142 229 260 248 238 251 251 262 229 205 201 193 164 162 160 164 169 181 208 232 299 320
139 117 133 167 195 228 216 200 204 207 182 179 159 163 162 129 181 213 206 222 218 101 204 235 237 259 269 263 263 267 224 196 157 152 165 163 164 173 175 185 211 246 297 301
172 169 209 208 219 226 208 196 166 200 155 155 148 137 167 192 198 207 232 215 160 212 231 236 244 243 288 268 248 236 235 182 168 160 155 160 170 183 187 192 199 253 282 295
182 189 224 223 218 228 214 172 146 177 138 136 86 103 168 183 249 214 220 217 236 216 233 249 253 260 279 265 238 206 182 166 174 162 161 170 181 182 189 201 209 233 270 292
199 222 239 237 206 222 164 175 188 153 125 87 94 180 213 207 213 209 219 205 226 241 234 262 312 335 288 322 297 211 176 178 180 174 176 181 182 186 197 207 211 229 261 279
213 230 212 214 266 210 180 157 186 155 133 172 173 230 214 185 217 211 200 223 275 280 278 277 248 273 319 296 273 221 180 182 191 183 184 188 192 192 195 205 233 232 252 290